• In Czech Republic
  • List of Countries
  • For 7 days
  • Water Temperature
  • Satellite Maps
  • Weather Map
  • Weather Widgets
  • user-avatar
    Login

    Hourly Weather Praia

    Today, 19 January, Friday

    Time Temperature Precipitation Wind Pressure Humidity
    00:00 +16°C° 0 mm 5 mps 683 mmHg 18%
    01:00 +16°C° 0 mm 5 mps 683 mmHg 19%
    02:00 +15°C° 0 mm 5 mps 683 mmHg 19%
    03:00 +15°C° 0 mm 5 mps 683 mmHg 20%
    04:00 +14°C° 0 mm 5 mps 683 mmHg 21%
    05:00 +14°C° 0 mm 5 mps 683 mmHg 21%
    06:00 +14°C° 0 mm 6 mps 683 mmHg 22%
    07:00 +14°C° 0 mm 6 mps 683 mmHg 22%
    08:00 +14°C° 0 mm 6 mps 684 mmHg 22%
    09:00 +16°C° 0 mm 7 mps 684 mmHg 20%
    10:00 +18°C° 0 mm 8 mps 685 mmHg 17%
    11:00 +21°C° 0 mm 8 mps 685 mmHg 15%
    12:00 +23°C° 0 mm 8 mps 685 mmHg 13%
    13:00 +24°C° 0 mm 7 mps 684 mmHg 11%
    14:00 +27°C° 0 mm 7 mps 684 mmHg 10%
    15:00 +26°C° 0 mm 7 mps 684 mmHg 9%
    16:00 +26°C° 0 mm 7 mps 683 mmHg 9%
    17:00 +26°C° 0 mm 7 mps 683 mmHg 9%
    18:00 +23°C° 0 mm 6 mps 683 mmHg 10%
    19:00 +22°C° 0 mm 6 mps 683 mmHg 11%
    20:00 +20°C° 0 mm 6 mps 683 mmHg 12%
    21:00 +19°C° 0 mm 6 mps 683 mmHg 13%
    22:00 +17°C° 0 mm 6 mps 684 mmHg 13%
    23:00 +16°C° 0 mm 7 mps 684 mmHg 14%

    Tomorrow, 20 January, Saturday

    Time Temperature Precipitation Wind Pressure Humidity
    00:00 +16°C° 0 mm 6 mps 684 mmHg 15%
    01:00 +15°C° 0 mm 6 mps 683 mmHg 15%
    02:00 +14°C° 0 mm 6 mps 683 mmHg 16%
    03:00 +14°C° 0 mm 6 mps 683 mmHg 17%
    04:00 +13°C° 0 mm 6 mps 683 mmHg 19%
    05:00 +13°C° 0 mm 6 mps 683 mmHg 20%
    06:00 +13°C° 0 mm 6 mps 683 mmHg 20%
    07:00 +13°C° 0 mm 6 mps 683 mmHg 21%
    08:00 +13°C° 0 mm 6 mps 683 mmHg 21%
    09:00 +15°C° 0 mm 6 mps 684 mmHg 18%
    10:00 +19°C° 0 mm 6 mps 684 mmHg 15%
    11:00 +22°C° 0 mm 6 mps 685 mmHg 12%
    12:00 +23°C° 0 mm 6 mps 684 mmHg 10%
    13:00 +26°C° 0 mm 5 mps 684 mmHg 9%
    14:00 +28°C° 0 mm 4 mps 683 mmHg 7%
    15:00 +28°C° 0 mm 3 mps 683 mmHg 7%
    16:00 +29°C° 0 mm 3 mps 683 mmHg 6%
    17:00 +29°C° 0 mm 3 mps 683 mmHg 6%
    18:00 +27°C° 0 mm 3 mps 683 mmHg 7%
    19:00 +23°C° 0 mm 4 mps 683 mmHg 8%
    20:00 +21°C° 0 mm 4 mps 683 mmHg 9%
    21:00 +20°C° 0 mm 4 mps 683 mmHg 9%
    22:00 +19°C° 0 mm 4 mps 683 mmHg 10%
    23:00 +18°C° 0 mm 4 mps 683 mmHg 11%

    Day after tomorrow, 21 January, Sunday

    Time Temperature Precipitation Wind Pressure Humidity
    00:00 +18°C° 0 mm 4 mps 683 mmHg 11%
    01:00 +17°C° 0 mm 4 mps 682 mmHg 12%
    02:00 +17°C° 0 mm 4 mps 682 mmHg 13%
    03:00 +15°C° 0 mm 4 mps 682 mmHg 13%
    04:00 +14°C° 0 mm 4 mps 681 mmHg 14%
    05:00 +14°C° 0 mm 3 mps 681 mmHg 15%
    06:00 +14°C° 0 mm 3 mps 682 mmHg 15%
    07:00 +14°C° 0 mm 3 mps 682 mmHg 15%
    08:00 +16°C° 0 mm 3 mps 683 mmHg 15%
    09:00 +19°C° 0 mm 2 mps 683 mmHg 13%
    10:00 +21°C° 0 mm 2 mps 684 mmHg 11%
    11:00 +25°C° 0 mm 1 mps 684 mmHg 8%
    12:00 +27°C° 0 mm 1 mps 684 mmHg 8%
    13:00 +28°C° 0 mm 1 mps 683 mmHg 7%
    14:00 +30°C° 0 mm 1 mps 683 mmHg 6%
    15:00 +30°C° 0 mm 1 mps 683 mmHg 6%
    16:00 +30°C° 0 mm 2 mps 682 mmHg 6%
    17:00 +31°C° 0 mm 3 mps 682 mmHg 6%
    18:00 +29°C° 0 mm 3 mps 682 mmHg 7%
    19:00 +27°C° 0 mm 3 mps 682 mmHg 8%
    20:00 +24°C° 0 mm 3 mps 683 mmHg 9%
    21:00 +24°C° 0 mm 3 mps 683 mmHg 9%
    22:00 +22°C° 0 mm 3 mps 683 mmHg 10%
    23:00 +21°C° 0 mm 3 mps 683 mmHg 10%

    22 January, Monday

    Time Temperature Precipitation Wind Pressure Humidity
    00:00 +20°C° 0 mm 3 mps 683 mmHg 11%
    01:00 +19°C° 0 mm 3 mps 682 mmHg 11%
    02:00 +19°C° 0 mm 4 mps 682 mmHg 12%
    03:00 +18°C° 0 mm 4 mps 682 mmHg 12%
    04:00 +17°C° 0 mm 4 mps 682 mmHg 13%
    05:00 +15°C° 0 mm 4 mps 682 mmHg 14%
    06:00 +15°C° 0 mm 5 mps 682 mmHg 14%
    07:00 +15°C° 0 mm 5 mps 683 mmHg 14%
    08:00 +15°C° 0 mm 5 mps 683 mmHg 14%
    09:00 +19°C° 0 mm 5 mps 684 mmHg 12%
    10:00 +22°C° 0 mm 6 mps 684 mmHg 11%
    11:00 +26°C° 0 mm 6 mps 685 mmHg 9%
    12:00 +27°C° 0 mm 6 mps 684 mmHg 8%
    13:00 +28°C° 0 mm 5 mps 684 mmHg 7%
    14:00 +30°C° 0 mm 5 mps 683 mmHg 7%
    15:00 +30°C° 0 mm 5 mps 683 mmHg 7%
    16:00 +29°C° 0 mm 5 mps 683 mmHg 7%
    17:00 +29°C° 0 mm 5 mps 682 mmHg 7%
    18:00 +27°C° 0 mm 5 mps 683 mmHg 8%
    19:00 +24°C° 0 mm 6 mps 683 mmHg 9%
    20:00 +22°C° 0 mm 6 mps 684 mmHg 10%
    21:00 +21°C° 0 mm 7 mps 684 mmHg 11%
    22:00 +20°C° 0 mm 7 mps 684 mmHg 11%
    23:00 +18°C° 0 mm 7 mps 684 mmHg 12%

    23 January, Tuesday

    Time Temperature Precipitation Wind Pressure Humidity
    00:00 +18°C° 0 mm 7 mps 684 mmHg 13%
    01:00 +17°C° 0 mm 7 mps 683 mmHg 13%
    02:00 +16°C° 0 mm 7 mps 683 mmHg 13%
    03:00 +16°C° 0 mm 7 mps 683 mmHg 13%
    04:00 +15°C° 0 mm 7 mps 683 mmHg 13%
    05:00 +14°C° 0 mm 7 mps 682 mmHg 13%
    06:00 +14°C° 0 mm 7 mps 683 mmHg 13%
    07:00 +14°C° 0 mm 7 mps 683 mmHg 13%
    08:00 +13°C° 0 mm 8 mps 684 mmHg 13%
    09:00 +16°C° 0 mm 8 mps 684 mmHg 12%
    10:00 +18°C° 0 mm 9 mps 684 mmHg 11%
    11:00 +22°C° 0 mm 9 mps 685 mmHg 9%
    12:00 +23°C° 0 mm 9 mps 684 mmHg 9%
    13:00 +24°C° 0 mm 8 mps 683 mmHg 8%
    14:00 +27°C° 0 mm 8 mps 683 mmHg 8%
    15:00 +27°C° 0 mm 8 mps 682 mmHg 8%
    16:00 +26°C° 0 mm 8 mps 682 mmHg 8%
    17:00 +26°C° 0 mm 8 mps 682 mmHg 8%
    18:00 +24°C° 0 mm 7 mps 682 mmHg 10%
    19:00 +22°C° 0 mm 6 mps 683 mmHg 11%
    20:00 +20°C° 0 mm 6 mps 683 mmHg 13%
    21:00 +20°C° 0 mm 6 mps 683 mmHg 14%
    22:00 +19°C° 0 mm 6 mps 683 mmHg 16%
    23:00 +17°C° 0 mm 7 mps 683 mmHg 18%

    24 January, Wednesday

    Time Temperature Precipitation Wind Pressure Humidity
    00:00 +17°C° 0 mm 7 mps 683 mmHg 20%
    01:00 +16°C° 0 mm 7 mps 683 mmHg 22%
    02:00 +15°C° 0 mm 7 mps 682 mmHg 24%
    03:00 +15°C° 0 mm 6 mps 682 mmHg 26%
    04:00 +14°C° 0 mm 6 mps 682 mmHg 28%
    05:00 +14°C° 0 mm 6 mps 682 mmHg 30%
    06:00 +14°C° 0 mm 7 mps 682 mmHg 31%
    07:00 +14°C° 0 mm 7 mps 682 mmHg 31%
    08:00 +14°C° 0 mm 7 mps 683 mmHg 32%
    09:00 +16°C° 0 mm 7 mps 683 mmHg 29%
    10:00 +18°C° 0 mm 7 mps 683 mmHg 25%
    11:00 +21°C° 0 mm 7 mps 684 mmHg 22%
    12:00 +23°C° 0 mm 7 mps 683 mmHg 19%
    13:00 +24°C° 0 mm 6 mps 683 mmHg 17%
    14:00 +27°C° 0 mm 6 mps 682 mmHg 14%
    15:00 +27°C° 0 mm 6 mps 682 mmHg 14%
    16:00 +27°C° 0 mm 6 mps 682 mmHg 14%
    17:00 +27°C° 0 mm 6 mps 682 mmHg 14%
    18:00 +25°C° 0 mm 5 mps 682 mmHg 17%
    19:00 +23°C° 0 mm 5 mps 682 mmHg 19%
    20:00 +21°C° 0 mm 5 mps 682 mmHg 22%
    21:00 +20°C° 0 mm 5 mps 682 mmHg 23%
    22:00 +19°C° 0 mm 6 mps 682 mmHg 24%
    23:00 +17°C° 0 mm 6 mps 683 mmHg 26%
    Show more